Location: Stoke Bliss
(52.2667°N, 2.5167°W)
Time: 19:05:47
(UTC+00:00)

Cosmos 1666 - Pass Details

Date: 03 March 2021
Orbit: 497 x 518 km, 82.5° (Epoch: 17 April)

Event Time Altitude Azimuth Distance (km) Brightness Sun altitude
Rises 18:30:43 0° 139° (SE) 2,579 5.9 -6.5°
Reaches altitude 10° 18:33:49 10° 110° (ESE) 1,705 4.7 -7.0°
Maximum altitude 18:35:30 13° 83° (E) 1,542 4.4 -7.2°
Drops below altitude 10° 18:37:12 10° 56° (NE) 1,715 4.8 -7.5°
Sets 18:40:19 0° 28° (NNE) 2,610 6.0 -8.0°
